date:2026-07-26T15:31:08+00:00
validtle:1
satid:43758
launchyear:2018
epoch:26207.19431624
epochday:207
tleage:0
tleclassification:U
active:1
name:MINXSS-2
meananomly:234.1950
meanmotion:15.4956
rightascension:0.0000
declination:0.0000
semimajoraxis:6796.1404888172
altitudeatperigee:412
altitudeatapogee:424
inclination:97.4516
eccentricity:0.0008716
argumentofperigree:126.0111
nickname:MINXSS-2
idesg:18099A  
cosparid:2018-099A
altkm:424.60206345865
velkms:7.6546188963472
velkmh:27557
onumepoch:42016
onumnow:651071.69
otype:1
otypedesc:Low Earth Orbit (LEO)
status:1
timestamp:2026-07-26T04:39:49+00:00
nowjuliandate:2461248.1466307
nowepochdate:26207.6466203704
TLE:
MINXSS-2
1 43758U 18099A   26207.19431624  .00045095  00000+0  81419-3 0  9999
2 43758  97.4516 284.6932 0008716 126.0111 234.1950 15.49563701420167